Location: Fort Collins
(40.5850°N, 105.0840°W)
Time: 00:50:35
(UTC-07:00)

Daily predictions for brighter satellites

Satellite Brightness Start Highest point End
(mag) Time Altitude Azimuth Time Altitude Azimuth Time Altitude Azimuth
CZ-3 R/B 4.3 03:40:17 10° SW 03:56:51 25° S 04:03:16 10° SE
SL-16 R/B 4.4 04:09:01 15° NNE 04:09:01 15° NNE 04:09:55 10° NNE
USA 215 4.3 04:09:51 10° ENE 04:15:57 41° SE 04:20:10 19° S
Lacrosse 5 2.7 04:24:03 49° E 04:24:03 49° E 04:28:22 10° NE
CENTAUR R/B 3.9 04:28:32 28° N 04:28:32 28° N 04:32:19 10° NNE
SL-08 ROCKET BODY 4.4 04:22:20 10° S 04:28:16 74° E 04:34:08 10° N
Tiangong 2 3.9 04:45:33 18° ENE 04:45:33 18° ENE 04:46:30 10° E
Cosmos 2327 Rocket 4.4 04:38:55 10° S 04:45:17 87° W 04:51:38 10° N
Cosmos 2074 Rocket 3.8 04:48:29 10° SSW 04:54:43 70° W 05:00:59 10° N
SKYMED 2 4.3 04:53:28 10° SSE 04:57:40 51° ENE 05:00:03 24° N
CRYOSAT 2 4.5 04:53:48 10° SSE 04:58:40 73° E 05:03:33 10° N
Cosmos 2369 Rocket 2.9 04:56:19 20° N 05:00:07 51° ENE 05:05:38 10° SE
Cosmos 1603 3.6 05:01:03 52° WSW 05:02:16 66° WNW 05:07:54 10° NNE
SJ-6F 4.4 04:58:35 10° NNE 05:02:41 81° ESE 05:06:45 10° S
Cosmos 44 3.9 05:03:28 10° SSW 05:08:46 63° ESE 05:13:55 10° NE
NOAA 6 3.9 05:05:13 10° NNE 05:10:22 86° WNW 05:15:30 10° SSW
Transit 2A Rocket 4.4 05:11:46 65° NW 05:12:19 78° WSW 05:16:37 10° SSE
Cosmos 2184 Rocket 4.0 05:07:09 10° SSW 05:13:06 51° WNW 05:19:10 10° N
Cosmos 1536 3.4 05:12:22 10° S 05:16:16 57° E 05:20:13 10° NNE
CZ-4 R/B 4.2 05:16:57 10° NE 05:19:46 19° E 05:22:33 10° SE
Cosmos 1025 Rocket 3.9 05:15:45 10° N 05:20:01 49° E 05:24:14 10° SSE
Cosmos 1633 2.4 05:21:03 10° SSW 05:24:40 69° W 05:28:18 10° N
Cosmos 1943 3.1 05:19:34 10° SSW 05:25:11 88° ESE 05:30:53 10° NNE
Abrixas rocket 2.6 05:28:43 49° N 05:28:43 49° N 05:31:47 10° NE
USA 229 DEB 4.2 05:21:53 10° SSW 05:28:38 62° ESE 05:35:29 10° NE
USA 229 4.2 05:22:00 10° SSW 05:28:45 62° ESE 05:35:35 10° NE
Cosmos 2154 Rocket 3.9 05:22:49 10° SSW 05:29:01 75° W 05:35:15 10° N
Cosmos 1943 Rocket 3.0 05:32:52 10° NNW 05:38:12 47° ENE 05:43:29 10° SE
Okean 1 Rocket 3.2 05:34:45 10° SSW 05:38:59 47° W 05:43:14 10° N
Cosmos 2056 Rocket 4.0 05:40:01 29° WNW 05:41:34 35° W 05:46:08 10° SSW
Lacrosse 4 Rocket 3.3 05:39:40 10° N 05:43:13 26° NE 05:46:40 10° ESE
COSMO-SKYMED 1 2.9 05:41:34 10° S 05:45:43 44° W 05:48:38 18° NNW
SL-16 R/B 4.1 05:50:56 11° NNW 05:50:56 11° NNW 05:51:40 10° NNW
Ariane Rocket 2.9 05:48:06 10° N 05:53:07 64° WNW 05:58:07 10° SSW
CZ-2C R/B 3.8 05:50:22 10° NNE 05:55:17 43° E 06:00:03 10° S
Cosmos 44 Rocket 4.1 05:52:42 17° WSW 05:56:01 33° NW 06:00:38 10° NNE
BREEZE M DEB (TANK) 4.4 05:41:21 18° WNW 05:56:37 60° SW 06:00:56 10° SE
SL-8 Rocket 4.1 05:51:59 10° S 05:58:15 85° E 06:04:30 10° N
USA 215 3.3 05:52:41 10° NE 05:59:04 59° NW 06:05:27 10° WSW
SL-24 DEB 4.4 05:56:55 10° S 06:01:36 56° W 06:06:20 10° NNW
Okean 1-7 Rocket 4.2 05:58:58 12° NNW 06:02:28 33° W 06:06:25 10° SSW
Meteor 1-28 Rocket 3.5 06:01:34 10° S 06:05:12 45° W 06:08:53 10° NNW
Cosmos 1892 Rocket 3.6 06:01:49 10° N 06:06:18 89° W 06:10:46 10° S
Lacrosse 5 2.7 06:03:20 17° W 06:06:35 32° NNW 06:11:09 10° NNE
Helios 1B rocket 3.3 06:05:02 10° SSE 06:09:04 52° ENE 06:13:07 10° N
Cosmos 1900 4.3 06:05:10 11° NW 06:09:52 74° WSW 06:14:47 10° SSE
Cosmos 2263 4.2 06:04:39 10° NNW 06:10:11 60° WSW 06:15:40 10° S
Cosmos 2366 rocket 4.2 06:04:32 10° S 06:10:49 78° E 06:17:11 10° N
Cosmos 1959 Rocket 4.5 06:05:47 10° S 06:11:54 90° WSW 06:18:03 10° N
GRACE-2 4.0 06:11:36 10° N 06:14:19 49° W 06:17:01 10° SSW
GRACE-1 4.1 06:12:02 10° N 06:14:44 47° W 06:17:25 10° SSW
Cosmos 1340 2.6 06:12:41 10° NNW 06:16:27 64° W 06:20:11 10° S
Meteor 1-11 Rocket 4.5 06:12:27 10° SW 06:17:32 30° WNW 06:22:33 10° N
CENTAUR R/B 4.4 06:15:47 10° NW 06:18:59 13° NNW 06:22:19 10° NNE
Cosmos 2218 Rocket 4.0 06:12:49 10° S 06:19:13 80° W 06:25:39 10° N
Tiangong 2 1.1 06:17:36 15° WNW 06:20:04 70° SSW 06:23:12 10° ESE
Cosmos 1461 3.8 06:16:12 10° SSW 06:20:27 55° ESE 06:24:33 10° NE
SL-27 R/B 4.0 06:18:53 10° S 06:22:13 40° ESE 06:25:38 10° NNE
IDEFIX/ARIANE 42P 2.8 06:17:41 10° NNE 06:22:54 76° ESE 06:28:06 10° S
CSL-04 Rocket 4.0 06:19:43 10° N 06:24:57 44° WNW 06:30:07 10° SW
Cosmos 2084 3.2 06:25:21 10° SW 06:29:11 56° NW 06:32:56 10° NNE
Cosmos 1455 Rocket 3.0 06:26:04 10° SSW 06:30:21 66° W 06:34:41 10° N
Cosmos 1452 Rocket 4.3 06:26:07 10° NW 06:30:43 31° W 06:35:18 10° SSW
CSL-04 Debris 4.5 06:25:59 10° N 06:31:09 45° WNW 06:36:20 10° SW
USA 129 3.6 06:32:28 10° SW 06:33:54 16° W 06:35:22 10° NW
COSMOS 2406 3.5 06:34:14 10° SSW 06:39:52 78° ESE 06:45:34 10° NNE
Okean 2 4.3 06:37:55 10° NNW 06:41:34 30° W 06:45:11 10° SSW
Cosmos 2369 Rocket 3.4 06:39:25 10° NW 06:43:43 22° W 06:47:59 10° SSW
Cosmos 1727 Rocket 4.0 06:37:38 10° NNW 06:43:48 71° W 06:49:58 10° S
NOSS 3-1 (C) 3.6 06:42:05 10° SSW 06:47:52 83° ESE 06:54:21 10° NE
